Location: Mauna Kea VIS
(19.7591°N, 155.4561°W)
Time: 23:07:14
(UTC-10:00)

Hubble Space Telescope - Pass Details

Date: 16 December 2025
Orbit: 479 x 481 km, 28.5° (Epoch: 14 January)

Event Time Altitude Azimuth Distance (km) Brightness Sun altitude
Rises 18:28:22 0° 298° (WNW) 2,522 4.8 -10.0°
Reaches altitude 10° 18:30:44 10° 309° (NW) 1,643 3.7 -10.5°
Enters shadow 18:36:20 18° 67° (ENE) 1,236 1.9 -11.7°
Exits shadow 19:10:06 -64° 109° (ESE) 11,958 7.6 -19.2°
